Location: Laas
(43.4693°N, 0.3073°E)
Time: 16:06:45
(UTC+00:00)

NOSS 3-3 (A) - Pass Details

Date: 25 October 2020
Orbit: 826 x 1387 km, 63.4° (Epoch: 22 November)

Event Time Altitude Azimuth Distance (km) Brightness Sun altitude
Rises 19:10:06 0° 209° (SSW) 3,388 7.1 -24.3°
Reaches altitude 10° 19:12:27 10° 208° (SSW) 2,491 6.4 -24.7°
Maximum altitude 19:18:10 77° 124° (ESE) 949 3.7 -25.8°
Enters shadow 19:19:21 59° 56° (NE) 1,079 3.9 -26.0°
